sat.trackr.live / text

‹ back to catalog

STARLINK-34735

NORAD 65072 · 2025-165S

PAYLOAD ACTIVE UNKNOWN

§ Identity

Operator
Country
US
Launch date
2025-07-31
Launch site
AFWTR
Launch vehicle
Mass (kg)
RCS (m²)

Purposes: comms

External: N2YO · Heavens-Above · Gunter

§ Orbital elements

Epoch: 2026-09-20T22:00:03.000096Z

Period
93.91 min
Inclination
97.2851°
Eccentricity
0.0002157
Mean motion
15.33448097 rev/d
Perigee alt
464.1 km
Apogee alt
467.0 km
Semi-major
6,843.7 km
B*
-9.2763e-4
RAAN
335.0637°
Arg perigee
86.1240°
Mean anomaly
309.6420°
Rev number
529

§ Raw data

STARLINK-347351 65072U 25165S   26263.91670139 -.00029909  00000+0 -92763-3 0  99942 65072  97.2851 335.0637 0002157  86.1240 309.6420 15.33448097  5291

JSON: /api/v1/satellites/65072 · /tle

For live sub-satellite position, see the globe view (requires WebGL).

§ Visibility from observer

Set your observer location to see the next 7 days of passes ≥ 10°. The values pass through the URL so the page stays shareable.

No JS? Fill the form by hand. The geolocation button needs JavaScript.